Torna al catalogo

STARLINK-31511

AttivoComunicazioniVLEO
NORAD 59462·PAYLOAD·🇺🇸 United States

Lanciato Apr 10, 2024 da Cape Canaveral Space Force Station

Loading…

Prossimi Passaggi (prossime 24 ore)

TLE

AggiornatoSource: CelesTrak SupGP

Epoca: Sep 15, 2026, 02:11 UTC

1 59462C 24068H   26258.09145833 -.00021798  00000+0 -78952-3 0  2582
2 59462  43.0044  45.0405 0001710 272.8819 221.4686 15.27589779    17

Traccia STARLINK-31511 in tempo reale con AllMySat

Download on the App Store